TimeEST,TemperatureF,Dew PointF,Humidity,Sea Level PressureIn,VisibilityMPH,Wind Direction,Wind SpeedMPH,Gust SpeedMPH,PrecipitationIn,Events,Conditions,WindDirDegrees,DateUTC
12:14 AM,34.2,31.5,90,29.84,10.0,SW,8.1,-,N/A,,Overcast,220,2013-02-23 05:14:00
12:35 AM,34.0,31.1,89,29.84,7.0,SW,10.4,-,N/A,,Overcast,230,2013-02-23 05:35:00
12:55 AM,33.8,30.9,89,29.84,10.0,SW,8.1,-,N/A,,Overcast,230,2013-02-23 05:55:00
1:14 AM,33.4,30.2,88,29.84,10.0,WSW,10.4,-,N/A,,Overcast,240,2013-02-23 06:14:00
1:35 AM,33.3,29.3,85,29.84,10.0,WSW,9.2,-,N/A,,Overcast,240,2013-02-23 06:35:00
1:55 AM,32.9,28.4,84,29.84,10.0,SW,9.2,-,N/A,,Overcast,230,2013-02-23 06:55:00
2:14 AM,32.5,26.6,79,29.84,10.0,WSW,9.2,-,N/A,,Overcast,240,2013-02-23 07:14:00
2:35 AM,32.0,25.5,77,29.85,10.0,SW,9.2,-,N/A,,Overcast,230,2013-02-23 07:35:00
2:55 AM,32.0,24.3,73,29.84,10.0,SW,10.4,16.1,N/A,,Overcast,230,2013-02-23 07:55:00
3:14 AM,32.0,23.9,72,29.84,10.0,SW,10.4,-,N/A,,Light Drizzle,220,2013-02-23 08:14:00
3:35 AM,31.8,23.7,72,29.84,10.0,SW,10.4,-,N/A,Rain,Freezing Rain,230,2013-02-23 08:35:00
3:55 AM,31.6,23.2,71,29.84,10.0,SSW,6.9,-,N/A,,Overcast,210,2013-02-23 08:55:00
4:15 AM,31.5,23.0,71,29.83,10.0,SW,11.5,17.3,N/A,,Overcast,220,2013-02-23 09:15:00
4:35 AM,31.5,23.0,71,29.84,10.0,SW,6.9,-,N/A,,Overcast,220,2013-02-23 09:35:00
4:54 AM,31.1,23.0,72,29.84,10.0,SSW,8.1,-,N/A,,Overcast,210,2013-02-23 09:54:00
5:15 AM,30.9,23.0,72,29.84,10.0,SSW,10.4,-,N/A,Rain,Freezing Rain,210,2013-02-23 10:15:00
5:35 AM,30.9,22.8,72,29.84,10.0,SW,9.2,-,N/A,Snow,Light Snow,220,2013-02-23 10:35:00
5:54 AM,30.2,23.7,77,29.84,7.0,SSW,8.1,16.1,N/A,Snow,Light Snow,210,2013-02-23 10:54:00
6:15 AM,30.2,24.3,79,29.84,7.0,SSW,9.2,-,N/A,,Overcast,210,2013-02-23 11:15:00
6:34 AM,29.8,24.4,80,29.84,5.0,SSW,9.2,-,N/A,Snow,Light Snow,210,2013-02-23 11:34:00
6:55 AM,29.3,24.3,81,29.85,10.0,SSW,10.4,17.3,N/A,Snow,Light Snow,210,2013-02-23 11:55:00
7:15 AM,29.3,23.9,80,29.85,10.0,SSW,9.2,16.1,N/A,,Overcast,210,2013-02-23 12:15:00
7:34 AM,28.9,23.7,81,29.85,10.0,SSW,8.1,-,N/A,,Overcast,210,2013-02-23 12:34:00
7:55 AM,29.3,23.9,80,29.86,10.0,SSW,8.1,-,N/A,Snow,Light Snow,210,2013-02-23 12:55:00
8:15 AM,29.3,24.1,81,29.86,5.0,SSW,9.2,-,N/A,Snow,Light Snow,210,2013-02-23 13:15:00
8:34 AM,29.7,24.6,81,29.86,4.0,SW,10.4,-,N/A,Snow,Light Snow,220,2013-02-23 13:34:00
8:55 AM,29.8,24.8,81,29.86,3.0,SW,9.2,-,N/A,Snow,Light Snow,220,2013-02-23 13:55:00
9:15 AM,30.2,25.3,82,29.86,2.0,SW,10.4,-,N/A,Snow,Light Snow,230,2013-02-23 14:15:00
9:35 AM,30.2,25.5,83,29.86,4.0,SW,6.9,-,N/A,Snow,Light Snow,220,2013-02-23 14:35:00
9:55 AM,30.6,25.5,82,29.85,5.0,SW,11.5,-,N/A,Snow,Light Snow,230,2013-02-23 14:55:00
10:14 AM,30.7,25.2,80,29.85,4.0,SW,12.7,17.3,N/A,Snow,Light Snow,230,2013-02-23 15:14:00
11:15 AM,31.8,24.6,75,29.86,7.0,SW,12.7,16.1,N/A,Snow,Light Snow,230,2013-02-23 16:15:00
11:35 AM,32.0,23.9,72,29.86,7.0,WSW,10.4,19.6,N/A,Snow,Light Snow,240,2013-02-23 16:35:00
12:15 PM,32.2,23.2,69,29.86,10.0,WSW,13.8,18.4,N/A,Snow,Light Snow,240,2013-02-23 17:15:00
12:35 PM,32.9,22.3,65,29.86,10.0,WSW,12.7,-,N/A,,Overcast,240,2013-02-23 17:35:00
12:55 PM,32.2,21.7,65,29.86,10.0,SW,11.5,18.4,N/A,,Overcast,220,2013-02-23 17:55:00
1:15 PM,32.9,21.6,63,29.85,10.0,SW,15.0,19.6,N/A,,Overcast,230,2013-02-23 18:15:00
1:34 PM,32.9,20.1,59,29.85,10.0,SW,10.4,19.6,N/A,,Overcast,230,2013-02-23 18:34:00
1:55 PM,32.4,20.1,61,29.85,10.0,SW,12.7,-,N/A,Snow,Light Snow,230,2013-02-23 18:55:00
2:15 PM,32.0,22.5,68,29.84,7.0,West,10.4,-,N/A,Snow,Light Snow,260,2013-02-23 19:15:00
2:35 PM,31.8,21.9,67,29.84,7.0,WSW,13.8,18.4,N/A,Snow,Light Snow,240,2013-02-23 19:35:00
2:55 PM,32.0,21.2,64,29.85,10.0,SW,12.7,16.1,N/A,,Overcast,230,2013-02-23 19:55:00
3:15 PM,31.6,21.4,66,29.85,10.0,WSW,11.5,-,N/A,Snow,Light Snow,250,2013-02-23 20:15:00
3:35 PM,31.8,22.1,67,29.85,10.0,West,12.7,18.4,N/A,Snow,Light Snow,260,2013-02-23 20:35:00
3:54 PM,31.6,22.3,68,29.85,10.0,WSW,9.2,-,N/A,Snow,Light Snow,250,2013-02-23 20:54:00
4:15 PM,30.7,22.6,72,29.86,2.5,SW,13.8,19.6,N/A,Snow,Light Snow,230,2013-02-23 21:15:00
4:35 PM,30.2,23.9,77,29.86,4.0,WSW,6.9,10.4,N/A,Snow,Light Snow,240,2013-02-23 21:35:00
4:54 PM,30.2,23.9,77,29.86,2.5,WSW,10.4,-,N/A,Snow,Light Snow,240,2013-02-23 21:54:00
5:15 PM,29.8,23.9,79,29.86,4.0,SW,10.4,-,N/A,Snow,Light Snow,230,2013-02-23 22:15:00
5:35 PM,29.7,23.4,77,29.87,5.0,SW,8.1,-,N/A,Snow,Light Snow,220,2013-02-23 22:35:00
5:55 PM,29.1,22.8,77,29.87,7.0,SW,9.2,-,N/A,Snow,Light Snow,230,2013-02-23 22:55:00
6:15 PM,28.9,22.1,76,29.88,10.0,SW,6.9,-,N/A,,Overcast,230,2013-02-23 23:15:00
6:34 PM,28.9,22.1,76,29.88,10.0,SW,8.1,-,N/A,Snow,Light Snow,230,2013-02-23 23:34:00
6:55 PM,28.8,21.2,73,29.89,10.0,SW,6.9,16.1,N/A,,Overcast,230,2013-02-23 23:55:00
7:15 PM,28.6,21.2,74,29.89,10.0,SW,9.2,-,N/A,Snow,Light Snow,230,2013-02-24 00:15:00
7:35 PM,28.4,21.0,74,29.89,10.0,SW,6.9,-,N/A,,Overcast,230,2013-02-24 00:35:00
7:55 PM,28.4,20.8,73,29.89,10.0,SW,9.2,-,N/A,,Overcast,230,2013-02-24 00:55:00
8:14 PM,28.2,20.3,72,29.89,10.0,SW,6.9,-,N/A,,Overcast,230,2013-02-24 01:14:00
8:35 PM,28.0,20.3,73,29.89,10.0,SW,5.8,-,N/A,,Overcast,230,2013-02-24 01:35:00
8:55 PM,27.9,20.3,73,29.89,10.0,SW,6.9,-,N/A,,Overcast,220,2013-02-24 01:55:00
9:14 PM,27.5,20.7,75,29.89,10.0,SW,5.8,-,N/A,,Overcast,230,2013-02-24 02:14:00
9:35 PM,27.5,20.7,75,29.89,10.0,SW,6.9,-,N/A,,Overcast,230,2013-02-24 02:35:00
9:55 PM,27.3,20.7,76,29.89,10.0,WSW,5.8,-,N/A,,Overcast,240,2013-02-24 02:55:00
10:14 PM,26.6,20.1,77,29.88,10.0,SW,6.9,-,N/A,,Scattered Clouds,230,2013-02-24 03:14:00
10:35 PM,26.2,19.9,77,29.88,10.0,SW,6.9,-,N/A,,Clear,230,2013-02-24 03:35:00
10:55 PM,25.7,19.8,78,29.87,10.0,SW,8.1,-,N/A,,Scattered Clouds,220,2013-02-24 03:55:00
11:35 PM,26.2,19.9,77,29.87,10.0,WSW,8.1,-,N/A,,Overcast,250,2013-02-24 04:35:00
11:54 PM,26.2,19.9,77,29.87,10.0,WSW,8.1,-,N/A,,Overcast,240,2013-02-24 04:54:00